Lehigh Valley International Airport Allentown US
ICAO: KABE
IATA: ABE
Category: Medium
Scheduled Services: Yes

Elevation: 393 ft
TransAlt. 18000 ft.

Airport Communications:
APP/DEP:118.2
ATIS:126.975
CLNC DEL:124.05
GND:121.9
WILLIAMSPORT RDO:117.5
TWR:120.5
UNICOM:122.95

KABE Zoom In..

If you have problems with the map follow the link
https://www.worldairports.se/pages/airport.php?
ICAO=KABE

Runways:

(A) RW 06 length 7599 ft width 150 ft
ILS 110.70 / hdg 63

(B) RW 13 length 5797 ft width 150 ft
ILS 111.90 / hdg 135

(C) RW 24 length 7599 ft width 150 ft
ILS 108.55 / hdg 243

(D) RW 31 length 5797 ft width 150 ft
---- / hdg 315

Location; KABE
Day. 14 / Time. 22.00 Zulu
* Altimeter: 30.34
* Temperature: 07° c. 44.6°f.
* Wind from: 310° Speed 04 kn.
Dewpoint: 04° c.
Visibility: 6 Statute Miles.
Clouds: Overcast 1000 ft.
Conditions: Haze.

KABE 142200Z 31004KT 6SM HZ OVC010 07/04 A3034 RMK AO2 T00720044


Wind From 310°
Speed 04 kn.

 
 
jpsmedia.com for Web Design worldairports.se 2018   terms of use